Regional Weather Roundup
Issued by NWS San Angelo, TX

Home | Current Version | Previous Version | Text Only | Print | Product List | Glossary On
Versions: 1 2 3 4 5 6 7 8 9 10 11 12 13 14 15 16 17 18 19 20 21 22 23 24 25 26 27 28 29 30 31 32 33 34 35 36 37 38 39 40 41 42 43 44 45 46 47 48 49 50
000
ASUS44 KSJT 150910
RWRSJT
WEST CENTRAL TEXAS REGIONAL WEATHER ROUNDUP
NATIONAL WEATHER SERVICE SAN ANGELO TX
400 AM CDT MON SEP 15 2014

NOTE: "FAIR" INDICATES FEW OR NO CLOUDS BELOW 12,000 FEET WITH NO
SIGNIFICANT WEATHER AND/OR OBSTRUCTIONS TO VISIBILITY.

TXZ049-054-064>066-071>073-076>078-098-099-113-114-127-128-139-140-
154-155-168>170-151000
...LOCATIONS ACROSS WEST CENTRAL TEXAS...

CITY           SKY/WX    TMP DP  RH WIND       PRES   REMARKS
SAN ANGELO     CLOUDY    72  64  76 S5        30.15S
ABILENE        CLOUDY    72  63  73 S5        30.15F
DYESS AFB      NOT AVBL
JUNCTION       CLOUDY    72  66  81 S5        30.16F
SWEETWATER     CLOUDY    69  67  92 S3        30.19S
BROWNWOOD      LGT RAIN  72  64  78 SE7       30.15S
COLEMAN        LGT RAIN  71  64  78 S3        30.16S
SONORA         CLOUDY    70  66  88 CALM      30.20F
OZONA          RAIN      68  64  88 S5        30.19F
BRADY          CLEAR     70  66  88 SE3       30.16S
$$

TEXAS PANHANDLE/OKLAHOMA PANHANDLE

CITY           SKY/WX    TMP DP  RH WIND       PRES   REMARKS
AMARILLO       CLOUDY    63  60  90 SW18G25   30.15S
BORGER         PTCLDY    65  58  78 SW12G20   30.12F
CANADIAN       PTCLDY    65  62  88 SW3       30.09S
DALHART        MOCLDY    64  58  80 SW16G25   30.13F
DUMAS          SUNNY     61  58  90 SW14      30.12F
GUYMON         NOT AVBL
HEREFORD       CLOUDY    65  61  89 S14       30.18F
PAMPA          MOSUNNY   61  58  90 SW13      30.14R
PERRYTON       PTCLDY    64  60  86 SW17      30.09S
$$

SOUTHERN PANHANDLE/SOUTH PLAINS/ROLLING PLAINS

CITY           SKY/WX    TMP DP  RH WIND       PRES   REMARKS
LUBBOCK        CLOUDY    63  60  90 SW7       30.19S
SNYDER         CLOUDY    67  65  94 SW3       30.17S
CHILDRESS      CLOUDY    67  62  84 S7        30.15S
SEMINOLE       CLOUDY    63  63  98 S9        30.20F
$$

PERMIAN BASIN

CITY           SKY/WX    TMP DP  RH WIND       PRES   REMARKS
MIDLAND        PTCLDY    65  63  93 S7        30.17F
ODESSA         CLOUDY    65  63  93 S6        30.18F
WINK           PTCLDY    65  64  97 SE9       30.14F
$$

FAR WEST/SOUTHWEST MOUNTAINS/TRANS PECOS

CITY           SKY/WX    TMP DP  RH WIND       PRES   REMARKS
ALPINE         CLOUDY    61  59  91 S3        30.27F
DRYDEN           N/A     71  66  84 CALM      30.13F
EL PASO        PTCLDY    66  58  75 CALM      30.14S
FORT STOCKTON  CLOUDY    64  62  93 S7        30.17F
GUADALUPE PASS FOG       57  57 100 NE7       30.26F VSB 1/4
MARFA          CLOUDY    61  59  94 CALM      30.26S
PECOS          CLOUDY    64  61  92 SE8       30.14F
$$

DALLAS/FORT WORTH METROPLEX

CITY           SKY/WX    TMP DP  RH WIND       PRES   REMARKS
DFW AIRPORT    CLOUDY    72  65  78 CALM      30.12F
FTW MEACHAM    CLOUDY    72  65  78 CALM      30.12S
DAL-EXECUTIVE  CLOUDY    72  65  78 E3        30.12F
GRAND PRAIRIE  CLOUDY    71  64  78 CALM      30.14S
ADDISON        CLOUDY    73  65  75 SE6       30.14F
MESQUITE       CLOUDY    68  64  88 CALM      30.14R
LANCASTER      CLOUDY    68  60  74 CALM      30.13F
$$

NORTH CENTRAL TEXAS

CITY           SKY/WX    TMP DP  RH WIND       PRES   REMARKS
SHRMAN/DENISON CLOUDY    70  64  79 SE7       30.15S
GAINESVILLE    LGT RAIN  67  65  92 CALM      30.15S
BRIDGEPORT     LGT RAIN  68  65  90 CALM      30.16S
DENTON         RAIN      67  65  93 SW3       30.14R
WAXAHACHIE     CLOUDY    69  63  81 CALM      30.14F
GRANBURY       CLOUDY    73  65  75 CALM      30.14F
$$

WESTERN NORTH TEXAS

CITY           SKY/WX    TMP DP  RH WIND       PRES   REMARKS
WICHITA FALLS  LGT RAIN  68  65  90 S12       30.11F
VERNON         CLOUDY    70  67  88 S8        30.12F
BRECKENRIDGE   CLOUDY    73  63  71 S5        30.13S
COMANCHE         N/A     70  63  79 S3        30.15F
$$

CENTRAL AND SOUTH CENTRAL TEXAS

CITY           SKY/WX    TMP DP  RH WIND       PRES   REMARKS
AUSTIN/BERGSTM CLOUDY    69  67  93 CALM      30.11F
WACO           CLOUDY    69  66  90 CALM      30.12F
HILLSBORO      CLOUDY    72  64  75 CALM      30.13F
TEMPLE         CLOUDY    70  61  73 CALM      30.12F
KILLEEN-GRAY   NOT AVBL
FORT HOOD      CLOUDY    72  24  16 CALM      30.13F
GEORGETOWN     CLOUDY    70  66  88 CALM      30.13F
LAGO VISTA     FAIR      70  66  88 W3        30.15S
SAN MARCOS     CLOUDY    68  63  83 CALM      30.13S
NEW BRAUNFELS  CLOUDY    69  66  90 CALM      30.11S
RANDOLPH AFB   NOT AVBL
SAN ANTONIO    MOCLDY    70  66  87 CALM      30.13F
STINSON        CLOUDY    72  66  81 E3        30.10F
PLEASANTON     NOT AVBL
LA GRANGE      MOCLDY    72  70  94 NW3       30.09S
GIDDINGS       CLOUDY    69  66  92 CALM      30.14F
$$

EAST TEXAS

CITY           SKY/WX    TMP DP  RH WIND       PRES   REMARKS
PARIS          MOCLDY    66  59  77 E6        30.15F
CLARKSVILLE    NOT AVBL
TYLER          CLOUDY    71  66  84 S3        30.13S
LONGVIEW       MOCLDY    69  65  86 CALM      30.12S
PALESTINE      CLOUDY    71  68  90 E3        30.13S
NACOGDOCHES    MOCLDY    66  64  94 CALM      30.12S
$$

TEXAS HILL COUNTRY AND EDWARDS PLATEAU

CITY           SKY/WX    TMP DP  RH WIND       PRES   REMARKS
LLANO          CLOUDY    70  64  83 CALM      30.18S
HORSESHOE BAY  FAIR      68  65  90 CALM      30.14F
KERRVILLE      MOCLDY    65  63  94 CALM      30.16F
FREDERICKSBRG  MOCLDY    66  64  94 CALM      30.16S
ROCKSPRINGS    CLOUDY    66  64  94 SE7       30.19F
HONDO          PTCLDY    68  64  87 CALM      30.15S
UVALDE         PTSUNNY   70  68  93 E3        30.13F
DEL RIO        MOCLDY    70  67  90 E5        30.10F
$$

SOUTHEAST TEXAS

CITY           SKY/WX    TMP DP  RH WIND       PRES   REMARKS
COLLEGE STN    PTCLDY    70  68  93 NE3       30.10F
CALDWELL       MOSUNNY   68  68 100 CALM      30.14S
CROCKETT       PTSUNNY   72  70  94 CALM      30.14R FOG
BRENHAM        CLEAR     69  68  96 CALM      30.11S
HUNTSVILLE     PTCLDY    70  67  90 CALM      30.11R
CONROE         CLEAR     66  65  96 NW3       30.10S FOG
HOUSTON BUSH   PTCLDY    69  68  96 CALM      30.09S
HOUSTON HOBBY  PTCLDY    73  70  90 N3        30.07S
PERLAND        CLEAR     72  70  93 CALM      30.09S
WHARTON        CLOUDY    71  69  92 NW3       30.09S
$$

THE UPPER TEXAS COAST

CITY           SKY/WX    TMP DP  RH WIND       PRES   REMARKS
ORANGE         SUNNY     69  69 100 CALM      30.09S
PORT ARTHUR    CLEAR     72  68  87 NE7       30.07S
GALVESTON      MOCLDY    76  73  91 N7        30.07F
ANGLETON       CLEAR     70  69  97 CALM      30.07S
BAY CITY       PTSUNNY  N/A N/A N/A NW3       30.07S HAZE
$$

TEXAS COASTAL BEND, RIO GRANDE PLAINS DEEP SOUTH TEXAS

CITY           SKY/WX    TMP DP  RH WIND       PRES   REMARKS
VICTORIA       CLEAR     71  68  90 N6        30.08F
BEEVILLE       FAIR      69  69  99 NW3       30.08F
ROCKPORT       CLOUDY    73  69  87 N6        30.07F
PORT ARANSAS   PTSUNNY   74  69  85 N9        30.06S
PORT LAVACA    SUNNY     69  67  95 N5        30.06  FOG
CORPUS CHRISTI MOCLDY    72  68  87 N8        30.06F
KINGSVILLE NAS CLEAR     71  70  96 N6        30.06F
COTULLA        MOCLDY    71  67  87 E3        30.11S
LAREDO         CLOUDY    72  71  96 CALM      30.12F
BROWNSVILLE    MOCLDY    74  73  97 N7        30.03F
PORT ISABEL    MOCLDY    76  72  87 N8        30.03F
HEBBRONVILLE   SUNNY     71  69  93 CALM      30.10F
MCALLEN        CLOUDY    73  71  93 NW6       30.06F
WESLACO        MOCLDY    72  69  90 N6        30.05F
FALFURRIAS     SUNNY     54  52  92 N3        30.07F
EDINBURG       SUNNY     73  69  88 NW6       30.07S
$$


USA.gov is the U.S. government's official web portal to all federal, state and local government web resources and services.